THY44J DBBB-DIAP

Flight info

Callsign THY44J
Flight time 0h 59m
Altitude 35000
Route TYE L433 EREKA UL433 ACC UB600 TEMBI B600 ONESI
Aircraft A339/H-SDE/L

Departure

Time 2026-04-22 19:08
Airport Cotonou Cadjehoun International Airport (DBBB)

Arrival

Time 2026-04-22 20:07
Airport Félix-Houphouët-Boigny International Airport (DIAP)
Time Latitude Longitude Altitude Speed Heading
2026-04-22 18:50 6.35565 2.38598 30 ft 0 kts 201°
2026-04-22 19:04 6.35559 2.38589 30 ft 3 kts 228°
2026-04-22 19:04 6.35570 2.38558 30 ft 8 kts 288°
2026-04-22 19:04 6.35547 2.38481 29 ft 16 kts 238°
2026-04-22 19:04 6.35558 2.38391 30 ft 12 kts 324°
2026-04-22 19:05 6.35650 2.38370 31 ft 13 kts 19°
2026-04-22 19:05 6.35705 2.38450 31 ft 15 kts 36°
2026-04-22 19:05 6.35802 2.38552 31 ft 25 kts 51°
2026-04-22 19:05 6.35926 2.38710 31 ft 33 kts 52°
2026-04-22 19:06 6.36048 2.38875 28 ft 16 kts 55°
2026-04-22 19:06 6.36130 2.38986 28 ft 22 kts 52°
2026-04-22 19:06 6.36233 2.39120 27 ft 26 kts 52°
2026-04-22 19:07 6.36336 2.39308 29 ft 8 kts 24°
2026-04-22 19:07 6.36348 2.39284 29 ft 3 kts 273°
2026-04-22 19:07 6.36331 2.39256 27 ft 7 kts 236°
2026-04-22 19:07 6.36262 2.39159 27 ft 50 kts 231°
2026-04-22 19:08 6.35852 2.38623 31 ft 139 kts 232°
2026-04-22 19:08 6.35160 2.37723 460 ft 172 kts 232°
2026-04-22 19:08 6.34402 2.36714 1144 ft 191 kts 232°
2026-04-22 19:08 6.33586 2.35567 1755 ft 212 kts 235°
2026-04-22 19:09 6.32985 2.34145 2134 ft 235 kts 256°
2026-04-22 19:09 6.32899 2.32424 2382 ft 257 kts 267°
2026-04-22 19:09 6.32869 2.31209 2639 ft 265 kts 264°
2026-04-22 19:09 6.32654 2.28722 3518 ft 268 kts 264°
2026-04-22 19:10 6.32493 2.26842 4146 ft 272 kts 263°
2026-04-22 19:10 6.32270 2.24938 4787 ft 277 kts 263°
2026-04-22 19:10 6.32018 2.23003 5413 ft 281 kts 263°
2026-04-22 19:10 6.31766 2.21067 6042 ft 285 kts 264°
2026-04-22 19:11 6.31515 2.19070 6663 ft 288 kts 264°
2026-04-22 19:11 6.31269 2.17051 7260 ft 293 kts 264°
2026-04-22 19:11 6.31021 2.15003 7867 ft 296 kts 264°
2026-04-22 19:11 6.30771 2.12929 8436 ft 301 kts 264°
2026-04-22 19:12 6.30518 2.10827 9050 ft 305 kts 264°
2026-04-22 19:12 6.30259 2.08691 9670 ft 309 kts 264°
2026-04-22 19:12 6.29997 2.06523 10109 ft 319 kts 264°
2026-04-22 19:12 6.29723 2.04244 10283 ft 338 kts 264°
2026-04-22 19:13 6.29432 2.01837 10444 ft 355 kts 264°
2026-04-22 19:13 6.29128 1.99330 10803 ft 364 kts 263°
2026-04-22 19:13 6.28820 1.96795 11326 ft 368 kts 263°
2026-04-22 19:13 6.28510 1.94235 11857 ft 371 kts 263°
2026-04-22 19:14 6.28200 1.91674 12366 ft 374 kts 263°
2026-04-22 19:14 6.27883 1.89063 12879 ft 378 kts 263°
2026-04-22 19:14 6.27563 1.86425 13405 ft 381 kts 263°
2026-04-22 19:14 6.27241 1.83766 13889 ft 385 kts 263°
2026-04-22 19:15 6.27026 1.81997 14215 ft 386 kts 263°
2026-04-22 19:15 6.26590 1.78401 14898 ft 388 kts 263°
2026-04-22 19:15 6.26227 1.75708 15388 ft 390 kts 261°
2026-04-22 19:15 6.25795 1.73013 15867 ft 392 kts 261°
2026-04-22 19:16 6.25342 1.70301 16342 ft 394 kts 261°
2026-04-22 19:16 6.24890 1.67575 16806 ft 396 kts 261°
2026-04-22 19:16 6.24445 1.64833 17280 ft 398 kts 261°
2026-04-22 19:16 6.24003 1.62079 17748 ft 400 kts 261°
2026-04-22 19:17 6.23562 1.59306 18207 ft 403 kts 261°
2026-04-22 19:17 6.23120 1.56519 18609 ft 404 kts 261°
2026-04-22 19:17 6.22675 1.53720 19017 ft 406 kts 261°
2026-04-22 19:17 6.22230 1.50912 19427 ft 408 kts 261°
2026-04-22 19:18 6.21786 1.48123 19823 ft 410 kts 261°
2026-04-22 19:18 6.21335 1.45280 20240 ft 413 kts 261°
2026-04-22 19:18 6.20874 1.42385 20664 ft 415 kts 261°
2026-04-22 19:18 6.20423 1.39549 21064 ft 417 kts 261°
2026-04-22 19:19 6.19964 1.36663 21476 ft 419 kts 261°
2026-04-22 19:19 6.19503 1.33768 21908 ft 421 kts 261°
2026-04-22 19:19 6.19039 1.30852 22358 ft 423 kts 261°
2026-04-22 19:19 6.18511 1.27940 22764 ft 425 kts 256°
2026-04-22 19:20 6.17641 1.25094 23200 ft 427 kts 249°
2026-04-22 19:20 6.16464 1.22352 23605 ft 428 kts 246°
2026-04-22 19:20 6.15254 1.19608 23949 ft 430 kts 246°
2026-04-22 19:20 6.14048 1.16842 24270 ft 434 kts 246°
2026-04-22 19:21 6.12840 1.14058 24617 ft 436 kts 247°
2026-04-22 19:21 6.12036 1.12202 24830 ft 438 kts 247°
2026-04-22 19:21 6.10817 1.09389 25164 ft 440 kts 247°
2026-04-22 19:21 6.09592 1.06564 25506 ft 443 kts 247°
2026-04-22 19:22 6.08358 1.03718 25849 ft 445 kts 247°
2026-04-22 19:22 6.07122 1.00865 26191 ft 447 kts 248°
2026-04-22 19:22 6.05898 0.97984 26520 ft 449 kts 249°
2026-04-22 19:22 6.04784 0.95044 26830 ft 451 kts 251°
2026-04-22 19:23 6.03712 0.92078 27151 ft 453 kts 251°
2026-04-22 19:23 6.02632 0.89095 27462 ft 456 kts 251°
2026-04-22 19:23 6.01533 0.86097 27749 ft 458 kts 251°
2026-04-22 19:23 6.00410 0.83082 28058 ft 461 kts 251°
2026-04-22 19:24 5.99276 0.80067 28359 ft 463 kts 251°
2026-04-22 19:24 5.98131 0.77034 28648 ft 465 kts 251°
2026-04-22 19:24 5.96987 0.73981 28949 ft 468 kts 251°
2026-04-22 19:24 5.95847 0.70918 29235 ft 470 kts 251°
2026-04-22 19:25 5.94696 0.67833 29509 ft 473 kts 251°
2026-04-22 19:25 5.93534 0.64736 29802 ft 475 kts 251°
2026-04-22 19:25 5.92365 0.61620 30065 ft 477 kts 251°
2026-04-22 19:25 5.91193 0.58497 30364 ft 479 kts 251°
2026-04-22 19:26 5.90021 0.55369 30669 ft 480 kts 251°
2026-04-22 19:26 5.88848 0.52218 30987 ft 481 kts 251°
2026-04-22 19:26 5.87673 0.49064 31286 ft 483 kts 251°
2026-04-22 19:26 5.86491 0.45900 31580 ft 484 kts 251°
2026-04-22 19:27 5.85301 0.42722 31845 ft 487 kts 250°
2026-04-22 19:27 5.84106 0.39536 32130 ft 489 kts 250°
2026-04-22 19:27 5.82906 0.36338 32395 ft 490 kts 250°
2026-04-22 19:27 5.81702 0.33127 32606 ft 492 kts 250°
2026-04-22 19:28 5.80505 0.29940 32805 ft 493 kts 250°
2026-04-22 19:28 5.79290 0.26702 32984 ft 495 kts 250°
2026-04-22 19:28 5.78077 0.23474 33175 ft 495 kts 250°
2026-04-22 19:28 5.76859 0.20236 33315 ft 496 kts 249°
2026-04-22 19:29 5.75639 0.16998 33499 ft 496 kts 249°
2026-04-22 19:29 5.74424 0.13761 33726 ft 494 kts 249°
2026-04-22 19:29 5.73211 0.10522 33908 ft 494 kts 249°
2026-04-22 19:29 5.72001 0.07296 34101 ft 493 kts 249°
2026-04-22 19:30 5.71202 0.05167 34224 ft 492 kts 249°
2026-04-22 19:30 5.69585 0.00864 34460 ft 492 kts 249°
2026-04-22 19:30 5.68375 -0.02354 34619 ft 491 kts 249°
2026-04-22 19:30 5.67204 -0.05467 34791 ft 491 kts 249°
2026-04-22 19:31 5.65994 -0.08670 34854 ft 490 kts 248°
2026-04-22 19:31 5.63814 -0.15133 34858 ft 490 kts 256°
2026-04-22 19:32 5.62800 -0.21850 34857 ft 490 kts 264°
2026-04-22 19:32 5.62182 -0.28680 34857 ft 491 kts 264°
2026-04-22 19:33 5.61532 -0.35506 34854 ft 490 kts 264°
2026-04-22 19:33 5.60885 -0.42316 34849 ft 490 kts 264°
2026-04-22 19:34 5.60237 -0.49134 34850 ft 490 kts 264°
2026-04-22 19:34 5.59591 -0.55940 34847 ft 490 kts 264°
2026-04-22 19:35 5.58942 -0.62757 34853 ft 490 kts 264°
2026-04-22 19:35 5.58299 -0.69527 34851 ft 490 kts 264°
2026-04-22 19:36 5.57648 -0.76336 34850 ft 490 kts 264°
2026-04-22 19:36 5.56997 -0.83144 34851 ft 490 kts 264°
2026-04-22 19:37 5.56343 -0.89967 34852 ft 490 kts 264°
2026-04-22 19:37 5.55692 -0.96777 34849 ft 491 kts 264°
2026-04-22 19:38 5.55036 -1.03601 34849 ft 491 kts 264°
2026-04-22 19:38 5.54381 -1.10429 34848 ft 492 kts 264°
2026-04-22 19:39 5.53724 -1.17271 34855 ft 492 kts 264°
2026-04-22 19:39 5.53078 -1.24111 34856 ft 493 kts 264°
2026-04-22 19:40 5.52433 -1.30963 34856 ft 493 kts 264°
2026-04-22 19:40 5.51785 -1.37812 34852 ft 493 kts 264°
2026-04-22 19:41 5.51135 -1.44672 34852 ft 493 kts 264°
2026-04-22 19:41 5.50483 -1.51540 34852 ft 494 kts 264°
2026-04-22 19:42 5.49837 -1.58359 34846 ft 494 kts 264°
2026-04-22 19:42 5.49182 -1.65234 34848 ft 494 kts 264°
2026-04-22 19:43 5.48208 -1.75535 34845 ft 494 kts 265°
2026-04-22 19:43 5.47600 -1.82402 34848 ft 494 kts 264°
2026-04-22 19:44 5.46983 -1.89261 34849 ft 493 kts 264°
2026-04-22 19:44 5.46362 -1.96118 34853 ft 493 kts 264°
2026-04-22 19:45 5.45738 -2.02981 34856 ft 493 kts 264°
2026-04-22 19:45 5.45117 -2.09833 34856 ft 493 kts 264°
2026-04-22 19:46 5.44498 -2.16641 34859 ft 493 kts 264°
2026-04-22 19:46 5.43872 -2.23494 34855 ft 493 kts 264°
2026-04-22 19:47 5.43244 -2.30346 34851 ft 493 kts 264°
2026-04-22 19:47 5.43033 -2.32660 34722 ft 493 kts 264°
2026-04-22 19:47 5.42616 -2.37199 33925 ft 495 kts 264°
2026-04-22 19:48 5.42296 -2.40652 32778 ft 499 kts 264°
2026-04-22 19:48 5.41970 -2.44151 31396 ft 506 kts 265°
2026-04-22 19:48 5.41645 -2.47691 29867 ft 513 kts 265°
2026-04-22 19:48 5.41322 -2.51245 28555 ft 510 kts 266°
2026-04-22 19:49 5.41005 -2.54772 27562 ft 505 kts 265°
2026-04-22 19:49 5.40690 -2.58257 26843 ft 497 kts 265°
2026-04-22 19:49 5.40378 -2.61675 26336 ft 486 kts 265°
2026-04-22 19:49 5.40071 -2.65023 25828 ft 476 kts 265°
2026-04-22 19:50 5.39769 -2.68307 25328 ft 467 kts 265°
2026-04-22 19:50 5.39474 -2.71521 24837 ft 459 kts 265°
2026-04-22 19:50 5.39183 -2.74680 24355 ft 451 kts 265°
2026-04-22 19:50 5.38897 -2.77788 23877 ft 444 kts 265°
2026-04-22 19:51 5.38617 -2.80830 23407 ft 442 kts 265°
2026-04-22 19:51 5.38330 -2.83937 22832 ft 440 kts 264°
2026-04-22 19:51 5.38052 -2.86943 22286 ft 437 kts 264°
2026-04-22 19:51 5.37772 -2.89964 21736 ft 432 kts 265°
2026-04-22 19:52 5.37494 -2.92958 21198 ft 428 kts 265°
2026-04-22 19:52 5.37220 -2.95924 20672 ft 426 kts 265°
2026-04-22 19:52 5.36946 -2.98878 20156 ft 423 kts 265°
2026-04-22 19:52 5.36675 -3.01808 19651 ft 420 kts 265°
2026-04-22 19:53 5.36405 -3.04717 19151 ft 417 kts 265°
2026-04-22 19:53 5.36137 -3.07607 18662 ft 414 kts 265°
2026-04-22 19:53 5.35961 -3.09507 18341 ft 412 kts 265°
2026-04-22 19:53 5.35607 -3.13322 17620 ft 409 kts 265°
2026-04-22 19:54 5.35345 -3.16157 17074 ft 407 kts 265°
2026-04-22 19:54 5.35082 -3.18989 16532 ft 405 kts 265°
2026-04-22 19:54 5.34824 -3.21769 16012 ft 404 kts 264°
2026-04-22 19:54 5.34565 -3.24564 15525 ft 402 kts 264°
2026-04-22 19:55 5.34306 -3.27349 15066 ft 400 kts 264°
2026-04-22 19:55 5.34047 -3.30129 14606 ft 399 kts 264°
2026-04-22 19:55 5.33789 -3.32903 14146 ft 398 kts 264°
2026-04-22 19:55 5.33531 -3.35661 13699 ft 397 kts 264°
2026-04-22 19:56 5.33275 -3.38410 13204 ft 395 kts 264°
2026-04-22 19:56 5.33020 -3.41135 12703 ft 391 kts 264°
2026-04-22 19:56 5.32766 -3.43847 12211 ft 389 kts 264°
2026-04-22 19:56 5.32515 -3.46541 11722 ft 387 kts 264°
2026-04-22 19:57 5.32264 -3.49218 11253 ft 384 kts 264°
2026-04-22 19:57 5.32015 -3.51881 10779 ft 382 kts 264°
2026-04-22 19:57 5.31768 -3.54526 10318 ft 379 kts 264°
2026-04-22 19:57 5.31524 -3.57126 9943 ft 366 kts 264°
2026-04-22 19:58 5.31285 -3.59604 9717 ft 348 kts 264°
2026-04-22 19:58 5.31058 -3.61969 9451 ft 332 kts 264°
2026-04-22 19:58 5.30844 -3.64222 9202 ft 316 kts 264°
2026-04-22 19:58 5.30640 -3.66397 8960 ft 313 kts 264°
2026-04-22 19:59 5.30436 -3.68578 8708 ft 313 kts 264°
2026-04-22 20:00 5.36515 -3.76586 7188 ft 249 kts
2026-04-22 20:00 5.38196 -3.76832 6848 ft 240 kts 348°
2026-04-22 20:01 5.39707 -3.77435 6424 ft 236 kts 334°
2026-04-22 20:01 5.41058 -3.78360 5919 ft 235 kts 322°
2026-04-22 20:01 5.42229 -3.79502 5388 ft 235 kts 313°
2026-04-22 20:01 5.43248 -3.80785 4869 ft 235 kts 307°
2026-04-22 20:02 5.44135 -3.82167 4340 ft 235 kts 301°
2026-04-22 20:02 5.44599 -3.83700 3822 ft 230 kts 268°
2026-04-22 20:02 5.44108 -3.85139 3442 ft 211 kts 229°
2026-04-22 20:02 5.42953 -3.85881 3184 ft 190 kts 196°
2026-04-22 20:03 5.41733 -3.86220 2947 ft 176 kts 195°
2026-04-22 20:03 5.40608 -3.86586 2711 ft 164 kts 199°
2026-04-22 20:03 5.39597 -3.86999 2515 ft 148 kts 204°
2026-04-22 20:03 5.38684 -3.87386 2343 ft 141 kts 201°
2026-04-22 20:04 5.37787 -3.87755 2156 ft 137 kts 202°
2026-04-22 20:04 5.37192 -3.88003 2051 ft 143 kts 202°
2026-04-22 20:04 5.36385 -3.88336 1873 ft 135 kts 203°
2026-04-22 20:04 5.35229 -3.88817 1653 ft 133 kts 202°
2026-04-22 20:05 5.34368 -3.89173 1465 ft 132 kts 203°
2026-04-22 20:05 5.33513 -3.89528 1314 ft 140 kts 203°
2026-04-22 20:05 5.32636 -3.89892 1121 ft 133 kts 202°
2026-04-22 20:05 5.31756 -3.90257 951 ft 137 kts 203°
2026-04-22 20:06 5.30866 -3.90627 780 ft 139 kts 202°
2026-04-22 20:06 5.30280 -3.90867 669 ft 134 kts 203°
2026-04-22 20:06 5.29388 -3.91240 463 ft 135 kts 203°
2026-04-22 20:06 5.28520 -3.91599 310 ft 145 kts 204°
2026-04-22 20:07 5.27622 -3.91969 107 ft 134 kts 204°
2026-04-22 20:07 5.26750 -3.92332 28 ft 126 kts 202°
2026-04-22 20:07 5.26191 -3.92561 30 ft 67 kts 199°
2026-04-22 20:07 5.25899 -3.92678 32 ft 33 kts 203°
2026-04-22 20:08 5.25696 -3.92762 31 ft 30 kts 202°
2026-04-22 20:08 5.25509 -3.92842 33 ft 28 kts 207°
2026-04-22 20:08 5.25484 -3.92944 32 ft 13 kts 291°
2026-04-22 20:08 5.25500 -3.93029 31 ft 12 kts 252°
2026-04-22 20:09 5.25478 -3.93107 34 ft 12 kts 273°
2026-04-22 20:09 5.25481 -3.93144 34 ft 1 kts 275°
2026-04-22 20:09 5.25482 -3.93150 34 ft 0 kts 275°